Temp
26 27 25 24 22 21 23 26 30 31 30 28 27 25 23 24 25 22 20 20 19 19 20 20 20 20 21 21 21 21 21 21 21 21 20 20 20 20 20 20 20 20 20 20 19 19 19 19 19
26 26 26 23 22 22 24 28 28 29 30 29 28 26 25 23 23 21 21 20 19 20 20 19 19 20 20 20 20 20 20 20 20 20 20 20 20 20 20 20 20 20 20 20 19 19 19 19 19
26 25 22 22 22 24 24 29 28 30 30 30 28 26 25 22 21 21 20 20 20 19 19 18 19 20 20 20 20 20 20 20 20 20 20 20 20 20 20 20 20 20 20 19 19 19 19 19 19
25 23 22 24 24 27 28 29 29 31 30 28 26 23 22 21 21 21 20 20 19 18 18 18 19 20 19 19 19 19 19 19 20 20 20 20 20 19 19 19 19 19 19 19 19 19 19 19 19
26 22 22 24 25 28 30 29 30 30 31 29 27 23 20 21 22 21 20 20 18 18 18 18 19 19 19 19 19 19 19 19 19 19 19 19 19 19 19 19 19 19 19 19 19 19 19 19 19
23 22 22 23 26 29 31 31 31 31 30 26 25 23 20 21 22 21 20 19 18 18 18 18 18 18 18 18 18 18 18 18 18 18 18 19 19 19 19 19 19 19 19 19 19 19 19 19 19
24 22 22 23 26 28 30 32 32 31 29 29 26 22 19 21 21 20 20 19 18 18 17 18 18 18 18 19 19 19 18 18 18 18 19 18 18 18 19 19 18 18 19 19 19 19 19 19 19
24 22 23 23 26 26 30 31 32 30 29 28 25 21 19 20 20 20 19 18 18 18 18 17 17 18 18 18 18 18 17 17 17 17 17 18 18 18 18 18 18 19 19 19 19 19 19 19 19
27 22 21 24 27 28 29 28 30 29 25 24 23 24 23 20 20 20 19 19 18 18 17 17 18 18 17 18 17 17 17 16 16 16 16 17 17 16 17 18 18 18 18 19 19 19 19 19 19
23 21 23 26 27 28 28 26 30 29 25 22 21 20 20 20 20 19 18 18 18 17 17 17 18 17 17 17 17 17 17 16 15 16 16 16 15 15 16 16 16 17 18 18 18 18 19 18 18
25 23 25 27 28 27 28 27 27 28 27 24 20 20 20 20 20 20 19 19 18 18 17 17 17 17 17 16 17 16 16 16 15 15 15 15 14 15 15 15 15 16 16 16 17 17 18 17 17
24 26 27 27 28 29 27 27 26 28 27 25 21 21 20 20 21 20 20 19 18 18 17 16 16 16 16 16 16 16 15 15 14 14 15 14 13 13 14 14 14 15 15 15 15 15 15 16 16
24 25 26 26 26 26 28 27 26 25 25 24 23 22 21 21 21 22 21 20 18 17 16 16 15 15 15 16 15 15 15 15 14 14 13 14 13 13 13 13 13 13 14 14 14 14 14 14 15
24 24 24 25 24 25 26 26 27 26 23 24 23 22 22 21 22 21 20 18 18 17 16 15 15 15 15 15 15 15 15 14 14 13 13 13 11 12 12 12 12 12 13 13 13 13 13 13 13
24 22 23 24 24 25 25 24 25 26 25 24 23 23 21 21 22 20 19 19 18 17 16 15 15 14 14 15 15 14 15 14 14 13 13 12 11 11 11 11 11 11 11 11 12 12 12 11 11
22 22 21 24 25 26 24 24 25 25 24 22 23 23 22 21 21 20 21 19 18 17 16 15 14 14 14 14 14 14 14 14 14 13 13 12 11 10 11 10 10 10 10 10 10 9 9 9 9
20 19 21 23 26 25 24 23 24 25 26 22 23 22 21 19 19 21 20 19 17 16 15 15 14 13 13 14 14 15 14 14 13 13 12 11 10 10 10 10 9 9 9 9 8 8 8 7 7
20 20 23 23 25 27 26 25 25 25 26 23 20 20 20 20 18 19 19 17 16 15 14 14 13 13 14 14 14 14 14 14 13 13 12 11 10 10 9 9 8 8 7 7 7 7 7 7 7
22 22 22 23 24 24 23 22 23 24 24 21 21 21 21 20 17 18 17 16 15 15 14 14 13 13 14 14 14 14 13 13 13 12 11 11 10 9 9 8 8 7 7 6 6 6 6 6 6
23 22 22 23 24 24 22 22 23 23 24 21 21 21 21 18 18 16 15 15 15 14 14 14 13 13 13 13 13 13 13 13 12 12 11 11 10 9 9 8 7 7 6 6 5 5 5 5 6
23 22 22 22 23 22 22 22 23 24 24 23 24 23 23 20 17 15 15 13 14 14 14 13 13 12 12 12 12 13 13 12 12 11 11 10 10 9 9 8 7 6 6 5 5 4 4 4 5
22 23 23 23 22 20 23 20 22 23 23 24 25 23 22 21 17 15 14 12 14 13 13 13 12 11 11 11 11 11 11 11 10 10 10 9 9 9 8 7 6 6 5 4 4 3 3 4 4
22 23 23 22 20 20 21 18 21 23 23 24 23 24 23 19 16 14 13 13 12 13 12 12 12 11 10 10 10 10 9 10 10 10 9 9 8 8 7 6 5 5 4 3 3 3 3 3 3
21 21 21 21 19 17 20 19 20 21 23 25 25 22 19 16 15 14 13 11 12 12 12 12 11 10 10 9 9 8 9 9 8 8 7 7 7 6 6 5 4 4 3 3 2 2 3 3 3
21 19 16 16 16 17 21 20 21 22 23 23 21 17 16 15 14 13 11 11 10 11 11 11 10 9 9 9 8 8 8 8 7 6 6 5 5 5 4 4 3 3 2 2 1 2 2 2 2
19 18 14 16 16 17 20 19 21 23 22 22 20 18 16 15 14 12 10 10 10 11 11 11 10 9 9 8 8 7 7 6 6 5 5 4 4 4 3 3 3 2 2 1 1 1 1 1 2
19 18 19 17 18 15 16 19 21 22 20 20 19 17 15 14 13 12 11 10 10 10 10 10 10 9 8 8 7 6 6 5 5 4 4 3 3 2 2 2 2 1 1 0 0 -0 0 0 0
19 19 17 13 13 14 17 17 18 17 18 18 17 16 15 14 13 12 10 10 10 10 10 9 8 8 7 7 6 5 5 4 4 3 2 2 2 2 2 1 1 1 0 -0 -0 -1 -1 -1 -1
16 16 15 14 13 14 14 15 19 18 18 18 17 16 15 14 13 11 11 10 9 9 9 8 8 7 6 6 5 4 4 3 3 2 2 1 1 1 1 1 1 0 -0 -1 -1 -2 -2 -3 -3
15 14 12 12 13 12 13 14 18 15 15 17 16 16 15 14 12 11 10 9 8 8 8 7 6 6 5 5 4 4 3 3 2 1 1 1 1 1 0 0 -1 -1 -1 -1 -2 -3 -4 -4 -4
Height
770 769 770 772 800 797 801 773 748 745 739 735 735 747 771 769 779 803 791 793 797 799 800 797 797 796 797 797 797 797 798 799 799 800 802 803 804 804 804 804 804 805 804 805 805 804 805 805 805
769 767 767 773 804 814 796 756 755 743 733 731 734 746 759 784 778 786 791 796 799 796 798 798 796 797 798 797 797 798 799 800 799 800 801 801 803 804 804 804 804 804 804 804 804 804 804 804 804
769 769 778 788 799 801 794 758 749 735 729 730 744 749 764 783 784 788 792 793 797 799 797 795 797 797 797 797 798 799 800 800 799 800 801 801 802 803 803 804 804 804 803 804 804 803 804 804 803
769 771 774 792 794 767 763 753 739 735 731 731 744 770 776 783 783 787 792 794 796 796 795 798 798 797 798 798 799 800 801 801 800 800 800 801 802 802 802 803 803 803 803 803 803 802 802 802 801
768 774 796 794 781 757 745 740 731 737 735 740 741 774 785 785 785 789 792 794 795 795 796 796 797 798 799 800 801 802 802 802 801 801 801 802 801 801 801 801 802 802 802 802 801 801 801 800 800
778 776 805 805 781 755 741 727 728 731 733 743 752 766 786 786 787 790 792 793 795 795 795 796 798 799 800 801 802 803 803 803 802 802 802 801 801 802 801 801 800 800 800 800 800 799 798 798 798
779 791 802 794 778 763 740 723 729 733 736 739 741 772 783 784 786 789 791 794 795 795 796 798 799 800 801 802 803 804 804 803 803 802 801 801 801 801 801 800 799 799 799 799 798 797 796 796 796
770 783 792 786 779 777 742 732 724 735 742 734 742 770 785 779 785 789 793 794 795 796 798 799 800 801 802 802 803 804 805 804 803 802 802 801 801 801 800 800 800 799 797 797 796 795 794 793 793
758 793 805 785 775 762 745 749 734 732 745 747 749 750 754 773 782 787 791 794 795 796 796 798 799 801 803 804 804 804 805 805 804 802 802 801 801 800 800 799 798 797 797 796 795 793 792 792 790
772 795 786 763 759 759 749 754 743 743 750 762 763 764 766 772 779 783 788 791 793 794 796 798 799 801 802 804 805 805 805 805 805 803 802 802 801 800 800 798 797 796 795 794 793 792 790 790 789
765 783 764 756 751 748 752 752 744 746 753 749 760 765 769 774 779 782 787 789 791 793 796 799 800 801 802 803 805 806 805 805 805 803 802 803 802 800 798 798 797 797 795 793 792 790 789 789 788
773 758 754 748 744 746 750 749 753 745 742 735 747 758 766 769 772 776 781 786 790 793 796 800 801 802 802 802 804 805 806 806 806 805 803 802 802 801 799 799 798 797 796 793 792 791 789 787 786
766 760 752 749 747 748 742 748 751 748 741 739 746 754 760 765 769 773 776 783 788 792 797 800 802 802 802 803 804 805 807 806 808 807 803 802 801 801 801 800 799 797 796 795 792 791 789 786 784
760 758 755 750 751 748 752 750 746 743 743 746 748 753 757 763 766 772 776 780 785 790 794 799 802 803 802 803 804 804 806 806 807 807 804 804 802 801 801 801 801 799 798 796 794 791 787 785 783
760 767 760 753 750 751 744 758 755 740 742 747 750 753 755 760 766 768 773 778 782 789 793 799 802 802 801 803 803 803 805 806 806 807 805 804 804 801 802 801 801 799 798 795 793 791 788 785 782
772 768 778 748 746 739 748 763 745 736 739 747 748 750 752 755 761 769 774 777 782 787 791 798 801 800 800 803 803 804 806 807 808 807 806 804 804 803 801 801 800 799 797 796 794 791 787 784 781
775 788 775 758 734 736 740 751 738 730 734 746 744 748 751 756 758 764 771 776 782 788 793 799 802 801 800 802 803 806 806 806 807 808 807 806 805 804 803 802 800 798 797 796 794 791 789 786 782
780 777 761 760 739 728 731 739 733 728 727 736 744 746 750 754 757 761 769 778 785 790 795 800 803 801 801 801 801 804 807 807 807 807 807 807 806 806 804 802 801 799 797 794 794 792 790 788 784
762 762 759 748 734 738 744 744 736 728 730 738 737 739 742 746 753 759 765 772 780 788 795 801 803 804 802 801 801 803 805 807 808 807 805 805 807 806 806 803 801 800 798 797 796 794 792 788 786
754 757 755 741 732 735 742 741 732 727 725 731 732 734 736 744 750 756 762 768 774 782 792 800 804 804 803 803 803 804 804 806 808 807 807 806 805 807 805 804 802 801 799 798 797 797 793 791 790
747 754 752 748 739 736 742 741 735 723 719 719 718 719 724 734 744 752 759 766 772 779 786 795 801 803 804 803 803 804 804 807 808 808 807 808 808 807 806 804 803 802 800 800 799 797 796 794 792
747 736 737 739 748 761 737 752 736 727 724 717 710 713 717 724 737 746 755 764 770 778 784 790 797 803 805 805 804 804 805 807 808 809 809 809 809 809 807 806 804 803 802 800 799 798 797 795 793
740 728 733 739 750 753 743 761 734 722 723 713 704 700 703 715 728 742 752 761 770 778 784 790 793 799 804 805 806 805 806 809 808 808 808 809 810 810 808 807 804 803 802 801 800 799 797 796 794
731 733 736 739 750 770 743 754 728 730 717 702 692 694 704 718 732 741 751 759 769 777 783 790 794 799 803 805 806 807 809 809 808 808 808 810 811 811 809 808 806 805 803 802 800 799 797 795 793
735 747 770 773 771 762 737 748 726 714 705 696 697 704 709 718 730 740 753 761 769 775 783 789 793 799 803 805 807 809 808 808 808 809 810 810 810 811 810 809 807 805 804 802 800 798 796 794 792
738 746 772 767 766 759 737 743 728 710 702 696 699 706 717 729 738 746 755 763 770 778 784 790 793 798 803 806 808 809 808 809 808 808 809 809 809 810 809 808 806 805 804 802 800 798 796 794 791
734 744 736 756 749 768 752 734 717 705 710 707 712 723 728 738 746 750 759 767 774 778 783 790 795 797 801 805 807 808 809 810 810 810 809 810 810 809 808 806 804 804 803 802 799 798 795 793 790
726 727 749 767 775 769 747 742 737 729 725 721 725 726 736 745 749 754 763 771 775 779 782 788 794 798 801 803 806 808 809 809 810 809 810 810 810 809 808 807 805 803 802 801 799 796 794 791 789
738 739 749 760 770 762 760 752 722 729 725 726 734 737 741 747 751 758 765 773 778 782 785 789 795 799 801 803 805 809 809 810 810 809 810 811 811 810 809 807 805 803 802 800 798 796 794 790 787
745 752 767 767 756 758 759 755 726 735 735 730 738 739 743 747 753 758 766 773 778 783 788 791 798 801 804 805 806 808 809 810 810 810 810 811 811 810 809 808 805 804 802 799 797 795 792 789 785
Wind_Speed
19 16 16 3 3 3 5 10 3 7 7 11 17 19 17 13 3 7 17 23 19 14 12 13 12 11 10 10 9 9 8 7 7 6 5 4 4 4 3 4 4 4 4 5 6 7 7 8 8
17 18 0 2 3 2 7 6 6 9 7 19 19 15 11 9 9 13 12 21 18 14 14 15 13 12 11 11 9 8 7 6 6 5 3 2 1 2 4 4 4 4 5 5 6 6 7 7 9
17 9 2 4 3 7 5 2 6 5 9 8 6 10 6 5 5 4 23 19 14 16 16 14 12 12 11 10 9 8 6 5 4 3 2 1 1 2 4 5 5 5 6 6 7 7 8 8 9
6 3 4 0 10 15 8 6 8 4 6 11 11 11 6 12 5 17 21 16 16 15 15 12 11 11 10 9 8 6 6 5 5 4 4 3 3 3 5 6 7 8 8 8 8 8 9 9 9
5 1 1 4 12 15 9 8 9 7 5 9 7 5 6 7 22 24 23 17 17 17 15 14 12 11 10 9 8 7 6 6 6 6 6 6 7 7 7 7 8 8 9 9 9 10 10 10 10
3 3 3 7 13 10 9 7 7 8 8 9 8 7 4 14 15 20 24 18 15 18 17 15 13 12 11 10 9 9 9 8 8 8 8 8 8 9 9 9 9 9 9 10 11 12 12 13 12
6 2 6 8 12 11 4 1 3 4 8 5 14 6 8 10 19 18 19 19 17 16 15 13 11 11 11 11 10 11 12 12 11 9 9 8 8 8 13 9 9 11 12 12 13 14 14 15 15
1 4 7 7 10 9 6 5 3 8 4 8 8 7 8 12 23 22 18 18 17 16 14 12 10 11 11 11 12 13 13 14 13 12 10 5 6 7 9 9 12 14 14 13 13 14 15 16 17
2 2 5 10 6 5 8 8 8 6 9 8 8 6 17 35 29 27 24 20 17 15 12 9 10 14 8 10 13 11 9 11 12 14 14 11 12 13 10 11 12 12 11 13 16 17 15 16 16
4 5 9 8 6 4 8 9 4 3 6 6 13 18 29 32 25 22 19 18 18 16 11 8 11 13 11 10 9 8 10 9 11 14 16 12 12 12 11 11 13 12 14 15 16 15 14 15 16
5 6 9 7 6 4 4 11 6 5 4 8 15 18 18 23 18 20 20 23 19 17 12 8 10 11 12 10 8 9 10 11 12 13 17 14 11 14 13 15 17 19 20 16 15 15 16 17 16
7 10 11 9 6 3 1 4 9 2 6 14 21 21 18 17 16 21 21 26 24 16 12 8 8 10 10 8 8 10 10 14 13 12 16 17 16 18 18 17 18 21 19 20 20 20 20 20 20
6 9 10 9 9 7 6 5 7 10 4 20 22 21 19 15 17 22 29 28 23 20 13 7 6 9 8 8 11 9 11 13 11 14 14 18 17 19 18 17 21 20 21 21 20 22 23 23 22
7 10 12 7 11 7 9 7 3 9 10 17 19 17 15 13 14 20 26 29 26 22 14 8 6 8 8 8 11 8 9 10 10 10 12 17 15 18 16 16 20 20 21 20 21 20 19 22 24
9 8 10 13 9 10 10 9 8 9 12 16 15 14 12 11 21 20 27 28 27 20 14 7 6 7 8 7 10 7 8 9 10 6 10 16 15 17 16 17 19 20 17 19 19 21 23 25 26
10 6 6 15 15 18 9 15 12 10 9 14 16 15 14 10 16 26 26 26 24 20 16 11 8 7 7 7 7 7 11 10 10 6 11 13 15 16 16 18 19 19 18 19 23 25 26 28 27
7 6 11 16 18 11 13 7 12 10 6 11 16 12 11 10 16 27 26 28 24 21 15 10 5 4 7 8 9 10 10 9 9 7 13 13 16 16 16 15 16 17 19 21 23 24 26 26 27
6 7 11 9 8 5 2 4 6 6 6 8 11 10 10 14 13 25 31 28 24 19 15 8 3 3 8 8 7 10 9 8 6 8 12 11 17 17 16 18 18 21 23 22 23 24 23 21 23
17 18 17 8 9 4 5 7 9 8 4 9 14 14 13 16 13 29 33 30 24 16 9 6 2 4 4 8 8 8 8 6 7 9 8 11 14 16 16 17 20 21 24 21 21 19 22 22 24
18 15 14 6 8 8 10 10 8 8 6 10 14 14 15 11 19 21 29 32 27 22 15 7 7 4 6 7 6 5 7 6 12 10 10 14 12 14 14 15 16 20 21 20 20 19 19 20 22
19 11 10 7 6 9 6 10 7 7 8 8 15 17 17 20 21 18 20 27 29 25 18 15 9 4 4 7 7 5 6 11 11 12 13 13 13 13 13 13 16 18 17 17 17 17 19 18 20
21 8 10 8 6 9 5 14 8 5 10 11 18 18 17 20 21 17 20 22 29 26 20 19 12 9 6 9 9 11 14 12 12 12 12 11 13 14 13 14 16 16 17 16 17 16 16 16 16
16 9 12 10 6 5 10 5 2 7 14 15 12 16 21 21 24 21 18 24 31 27 21 17 14 9 8 6 8 10 11 10 11 12 12 14 13 13 14 18 17 19 19 17 15 17 16 15 15
7 3 5 4 1 6 5 5 20 9 14 17 16 7 18 24 20 20 26 31 30 26 21 16 15 13 9 9 9 10 10 10 13 13 13 13 13 14 18 16 17 17 17 16 16 17 16 17 16
3 3 2 3 3 11 4 7 15 9 10 8 9 14 21 23 21 20 19 23 26 26 21 16 19 15 10 10 10 9 11 12 13 13 12 14 14 17 18 18 18 19 17 16 16 16 17 17 16
10 7 5 6 6 6 5 6 10 2 6 10 14 17 18 17 17 17 16 21 23 25 20 15 17 16 13 10 9 9 9 11 11 10 10 12 13 14 18 20 19 19 17 17 16 15 17 17 18
10 8 7 8 13 1 4 10 15 11 6 9 18 17 16 16 16 17 18 22 24 25 19 16 16 17 14 11 9 10 9 9 11 10 10 11 12 13 17 18 19 18 18 17 17 16 17 19 17
4 6 7 3 3 6 8 7 5 7 8 10 15 19 17 15 16 14 14 20 23 27 24 18 19 17 13 10 9 8 8 9 9 9 12 13 14 15 16 17 17 17 17 18 18 19 17 21 20
4 2 5 4 4 4 3 4 6 8 9 7 12 11 13 14 13 12 14 20 24 26 22 18 16 15 12 10 10 8 8 8 8 9 12 13 14 14 16 16 16 16 17 18 19 15 17 22 25
2 4 3 2 1 3 3 4 11 12 15 8 10 8 12 12 12 14 17 22 22 25 22 20 16 13 10 9 9 7 8 9 8 10 12 12 12 14 14 14 16 18 16 19 15 17 22 23 24
Wind_Direction
312 319 311 281 37 85 269 270 237 279 62 84 90 92 88 53 123 127 131 120 122 117 121 109 107 106 104 101 97 93 90 91 94 90 79 57 30 11 3 358 2 355 2 356 350 345 332 323 322
315 323 258 270 115 292 278 326 100 81 109 108 96 100 71 72 67 121 116 135 136 123 126 117 114 110 107 99 95 95 98 96 93 94 91 77 35 344 335 329 329 328 333 338 337 331 320 314 313
309 288 66 158 210 226 244 32 105 88 75 48 92 50 62 67 78 86 130 128 132 135 123 116 117 109 102 99 99 98 101 101 101 96 81 50 328 311 310 310 306 304 312 317 316 319 319 316 312
315 36 327 105 262 268 237 196 139 98 67 81 113 76 74 349 110 128 129 130 129 121 113 111 101 94 91 88 84 79 72 69 63 46 27 1 339 334 325 317 310 305 300 302 305 309 310 313 313
252 310 283 276 268 273 289 197 140 126 96 106 100 109 72 53 116 132 132 133 123 115 110 102 94 90 87 83 75 67 56 45 37 30 18 8 1 356 348 338 325 315 304 298 295 295 299 304 305
340 120 343 284 286 298 317 160 149 152 144 132 93 104 111 148 129 122 120 122 118 111 101 94 92 86 80 73 65 59 51 42 37 28 24 19 17 9 7 359 341 323 312 301 295 293 293 295 296
185 83 251 279 293 314 255 59 37 121 146 129 139 89 142 143 135 127 128 128 120 109 102 96 94 86 73 63 56 50 43 40 33 23 20 30 24 20 6 1 345 343 330 318 311 303 295 292 291
121 115 311 283 292 305 337 358 28 57 16 92 138 143 162 164 145 137 134 128 120 114 109 107 99 82 62 55 62 58 48 40 23 15 22 23 15 9 3 358 345 340 337 326 320 312 303 297 292
276 38 270 265 282 289 353 19 349 14 61 45 0 133 142 145 151 140 134 128 125 120 119 120 106 98 99 63 66 59 48 48 23 20 22 27 42 23 9 18 4 5 359 348 342 329 320 321 300
140 168 243 244 294 357 358 0 322 66 102 73 75 79 123 143 156 141 142 144 134 125 123 124 115 117 105 91 84 72 49 60 29 23 26 38 43 23 8 10 0 3 11 359 351 347 356 2 346
258 219 252 280 289 50 17 334 321 202 211 176 154 143 144 154 159 151 158 157 149 134 121 123 122 126 109 101 90 76 49 42 48 24 24 33 27 20 19 15 21 13 4 355 343 336 333 332 329
329 284 257 284 307 293 239 296 316 239 240 153 147 148 155 167 165 167 163 152 141 139 131 131 125 115 110 106 85 78 54 52 44 20 20 30 23 22 22 26 21 7 4 353 348 349 344 335 331
307 307 318 328 337 313 293 259 249 296 75 129 139 154 163 170 170 173 155 149 144 133 133 135 130 114 99 88 81 73 57 59 44 23 25 24 26 22 25 26 19 5 355 355 0 354 341 335 334
282 307 310 318 301 295 289 262 220 286 129 136 149 159 162 173 172 138 145 143 142 138 136 137 131 122 106 97 91 79 71 69 55 38 35 22 32 26 28 27 16 1 0 5 0 356 347 336 332
308 318 303 288 273 268 252 281 242 233 148 156 158 163 168 176 149 146 141 140 140 137 139 153 165 135 121 121 113 92 84 78 64 46 31 22 28 29 31 31 18 7 3 4 359 351 343 338 335
297 290 273 268 250 254 186 240 245 227 177 168 170 175 174 165 144 141 145 142 143 144 146 140 157 144 125 120 105 90 90 72 61 53 24 30 26 24 35 29 16 8 11 2 358 1 352 347 347
243 253 257 271 257 240 198 209 217 231 185 186 177 177 171 144 143 150 153 145 143 139 141 160 158 138 125 103 96 84 92 78 76 37 18 31 24 24 31 22 15 6 5 3 7 1 354 351 345
236 232 253 251 284 309 228 213 210 220 211 182 173 168 163 159 157 140 136 131 128 126 124 129 164 114 113 104 102 116 91 86 73 45 30 26 21 24 23 19 16 8 6 10 6 2 359 352 343
244 255 264 274 283 356 250 258 249 231 204 175 176 178 181 176 147 133 135 135 131 125 129 140 140 88 83 116 111 96 87 94 88 60 78 35 24 21 17 23 16 14 12 14 11 2 355 353 347
256 262 268 264 293 292 288 273 229 228 222 196 188 191 186 142 150 139 134 137 137 135 134 144 132 111 83 105 86 107 119 106 93 91 59 33 33 22 21 20 21 12 12 10 9 3 357 349 354
262 266 274 245 290 292 299 274 267 265 236 223 209 193 187 163 155 146 142 139 141 137 136 136 118 119 86 42 113 102 104 94 69 61 42 44 38 30 24 24 12 10 13 12 5 3 360 345 345
254 233 282 269 249 261 227 278 239 270 273 258 240 204 185 169 155 146 143 137 140 138 131 126 114 98 77 65 83 80 74 70 60 56 42 58 41 43 34 20 13 9 6 2 359 353 351 346 335
279 228 250 266 273 316 265 266 227 233 267 273 240 223 195 158 151 147 141 136 136 138 127 129 122 115 92 81 74 75 72 60 56 49 62 42 40 32 21 13 9 6 7 2 355 346 344 339 333
339 5 339 308 157 265 237 196 276 248 249 255 267 192 141 140 139 133 132 129 131 131 131 130 135 118 107 89 75 72 67 57 55 48 36 33 29 23 14 16 9 8 4 357 351 344 340 336 331
251 41 3 283 210 251 165 226 237 277 300 279 155 124 130 134 135 133 126 127 126 132 135 132 132 117 108 93 84 74 62 62 59 44 33 30 26 20 18 12 9 6 4 354 347 344 339 337 332
219 158 186 220 235 264 332 250 252 199 60 44 58 121 119 121 127 126 126 126 128 131 130 130 126 122 112 100 82 74 71 61 50 39 29 22 17 14 4 5 4 5 359 356 351 346 342 336 332
240 216 213 254 268 257 249 290 298 306 51 45 100 107 108 118 119 119 119 127 130 133 130 126 129 118 108 103 87 77 64 55 44 43 38 25 8 7 5 3 2 359 357 355 353 346 342 337 342
182 196 231 56 219 240 246 250 230 58 40 33 100 120 115 116 120 121 121 132 131 128 123 112 115 111 110 105 87 81 71 58 48 38 27 14 16 9 2 360 358 358 356 355 352 346 349 353 347
326 57 56 115 206 214 258 295 108 108 104 86 98 105 114 129 130 122 125 123 124 126 126 117 115 113 109 108 100 94 70 55 41 31 14 17 12 6 360 359 356 359 352 353 348 359 353 347 337
103 329 66 249 283 159 199 235 72 65 48 42 71 113 129 126 127 127 126 126 128 129 129 118 117 112 111 108 113 86 62 59 59 30 25 21 10 4 2 359 6 357 353 352 7 5 354 346 337